Time,TemperatureF,DewpointF,PressureIn,WindDirection,WindDirectionDegrees,WindSpeedMPH,WindSpeedGustMPH,Humidity,HourlyPrecipIn,Conditions,Clouds,dailyrainin,SoftwareType,DateUTC
2013-05-03 00:04:00,57.7,43.9,30.33,West,270,0.0,2.0,60,0.00,,,0.00,heavyweathercustom,2013-05-03 04:04:00,
2013-05-03 00:10:00,57.4,43.6,30.34,West,270,3.3,3.3,60,0.00,,,0.00,heavyweathercustom,2013-05-03 04:10:00,
2013-05-03 00:20:00,57.4,44.1,30.34,West,270,0.0,10.8,61,0.00,,,0.00,heavyweathercustom,2013-05-03 04:20:00,
2013-05-03 00:34:00,56.8,43.9,30.34,WNW,293,3.3,10.8,62,0.00,,,0.00,heavyweathercustom,2013-05-03 04:34:00,
2013-05-03 00:40:00,56.5,44.1,30.34,West,270,3.3,10.8,63,0.00,,,0.00,heavyweathercustom,2013-05-03 04:40:00,
2013-05-03 00:50:00,56.1,43.7,30.35,WSW,248,0.0,10.8,63,0.00,,,0.00,heavyweathercustom,2013-05-03 04:50:00,
2013-05-03 01:04:00,55.9,43.9,30.35,West,270,6.8,10.8,64,0.00,,,0.00,heavyweathercustom,2013-05-03 05:04:00,
2013-05-03 01:10:00,55.9,44.7,30.35,West,270,3.3,22.1,66,0.00,,,0.00,heavyweathercustom,2013-05-03 05:10:00,
2013-05-03 01:20:00,55.6,45.2,30.36,West,270,3.3,22.1,68,0.00,,,0.00,heavyweathercustom,2013-05-03 05:20:00,
2013-05-03 01:34:00,55.6,45.2,30.35,West,270,13.4,22.1,68,0.00,,,0.00,heavyweathercustom,2013-05-03 05:34:00,
2013-05-03 01:40:00,55.2,44.4,30.37,WSW,248,6.8,22.1,67,0.00,,,0.00,heavyweathercustom,2013-05-03 05:40:00,
2013-05-03 01:50:00,55.2,44.0,30.37,WSW,248,3.3,22.1,66,0.00,,,0.00,heavyweathercustom,2013-05-03 05:50:00,
2013-05-03 02:04:00,55.2,44.0,30.38,West,270,0.0,22.1,66,0.00,,,0.00,heavyweathercustom,2013-05-03 06:04:00,
2013-05-03 02:10:00,55.2,44.0,30.37,West,270,0.0,25.1,66,0.00,,,0.00,heavyweathercustom,2013-05-03 06:10:00,
2013-05-03 02:20:00,55.0,44.2,30.37,West,270,6.8,25.1,67,0.00,,,0.00,heavyweathercustom,2013-05-03 06:20:00,
2013-05-03 02:34:00,54.7,44.3,30.38,SW,225,0.0,25.1,68,0.00,,,0.00,heavyweathercustom,2013-05-03 06:34:00,
2013-05-03 02:40:00,54.7,44.3,30.38,WNW,293,3.3,25.1,68,0.00,,,0.00,heavyweathercustom,2013-05-03 06:40:00,
2013-05-03 02:50:00,54.7,44.3,30.38,WSW,248,3.3,25.1,68,0.00,,,0.00,heavyweathercustom,2013-05-03 06:50:00,
2013-05-03 03:04:00,54.7,44.3,30.38,West,270,6.8,25.1,68,0.00,,,0.00,heavyweathercustom,2013-05-03 07:04:00,
2013-05-03 03:10:00,54.5,44.2,30.37,West,270,6.8,14.4,68,0.00,,,0.00,heavyweathercustom,2013-05-03 07:10:00,
2013-05-03 03:20:00,54.3,44.0,30.38,West,270,0.0,14.4,68,0.00,,,0.00,heavyweathercustom,2013-05-03 07:20:00,
2013-05-03 03:34:00,54.3,44.0,30.38,West,270,6.8,14.4,68,0.00,,,0.00,heavyweathercustom,2013-05-03 07:34:00,
2013-05-03 03:40:00,54.3,44.0,30.39,South,180,0.0,14.4,68,0.00,,,0.00,heavyweathercustom,2013-05-03 07:40:00,
2013-05-03 03:50:00,54.1,43.0,30.39,WNW,293,6.8,14.4,66,0.00,,,0.00,heavyweathercustom,2013-05-03 07:50:00,
2013-05-03 04:04:00,54.0,42.5,30.39,West,270,6.8,14.4,65,0.00,,,0.00,heavyweathercustom,2013-05-03 08:04:00,
2013-05-03 04:10:00,53.8,41.9,30.39,NNW,338,0.0,17.6,64,0.00,,,0.00,heavyweathercustom,2013-05-03 08:10:00,
2013-05-03 04:20:00,53.4,41.5,30.39,West,270,10.1,17.6,64,0.00,,,0.00,heavyweathercustom,2013-05-03 08:20:00,
2013-05-03 04:34:00,53.2,41.3,30.38,West,270,10.1,17.6,64,0.00,,,0.00,heavyweathercustom,2013-05-03 08:34:00,
2013-05-03 04:40:00,52.9,40.7,30.39,WNW,293,6.8,17.6,63,0.00,,,0.00,heavyweathercustom,2013-05-03 08:40:00,
2013-05-03 04:50:00,52.9,40.2,30.39,SSW,203,0.0,17.6,62,0.00,,,0.00,heavyweathercustom,2013-05-03 08:50:00,
2013-05-03 05:04:00,52.5,39.9,30.39,SSW,203,0.0,17.6,62,0.00,,,0.00,heavyweathercustom,2013-05-03 09:04:00,
2013-05-03 05:10:00,52.3,39.3,30.40,WNW,293,10.1,18.5,61,0.00,,,0.00,heavyweathercustom,2013-05-03 09:10:00,
2013-05-03 05:20:00,52.3,39.3,30.40,WNW,293,6.8,18.5,61,0.00,,,0.00,heavyweathercustom,2013-05-03 09:20:00,
2013-05-03 05:34:00,52.3,38.8,30.41,West,270,13.4,18.5,60,0.00,,,0.00,heavyweathercustom,2013-05-03 09:34:00,
2013-05-03 05:40:00,52.2,38.7,30.41,WNW,293,6.8,18.5,60,0.00,,,0.00,heavyweathercustom,2013-05-03 09:40:00,
2013-05-03 05:50:00,52.3,38.8,30.41,SW,225,3.3,18.5,60,0.00,,,0.00,heavyweathercustom,2013-05-03 09:50:00,
2013-05-03 06:04:00,52.3,38.8,30.41,NNW,338,0.0,18.5,60,0.00,,,0.00,heavyweathercustom,2013-05-03 10:04:00,
2013-05-03 06:10:00,52.5,39.0,30.41,West,270,3.3,25.1,60,0.00,,,0.00,heavyweathercustom,2013-05-03 10:10:00,
2013-05-03 06:20:00,52.5,39.4,30.41,WSW,248,6.8,25.1,61,0.00,,,0.00,heavyweathercustom,2013-05-03 10:20:00,
2013-05-03 06:34:00,52.9,39.4,30.41,West,270,13.4,25.1,60,0.00,,,0.00,heavyweathercustom,2013-05-03 10:34:00,
2013-05-03 06:40:00,53.2,39.7,30.41,SW,225,0.0,25.1,60,0.00,,,0.00,heavyweathercustom,2013-05-03 10:40:00,
2013-05-03 07:04:00,53.2,39.2,30.41,West,270,10.1,25.1,59,0.00,,,0.00,heavyweathercustom,2013-05-03 11:04:00,
2013-05-03 07:10:00,53.2,39.2,30.41,West,270,3.3,25.1,59,0.00,,,0.00,heavyweathercustom,2013-05-03 11:10:00,
2013-05-03 07:20:00,53.2,39.7,30.41,West,270,10.1,25.1,60,0.00,,,0.00,heavyweathercustom,2013-05-03 11:20:00,
2013-05-03 07:34:00,52.7,38.8,30.42,WNW,293,6.8,23.5,59,0.00,,,0.00,heavyweathercustom,2013-05-03 11:34:00,
2013-05-03 07:40:00,52.7,38.8,30.42,West,270,3.3,23.9,59,0.00,,,0.00,heavyweathercustom,2013-05-03 11:40:00,
2013-05-03 07:50:00,52.5,38.6,30.42,West,270,10.1,23.9,59,0.00,,,0.00,heavyweathercustom,2013-05-03 11:50:00,
2013-05-03 08:04:00,52.5,39.0,30.42,West,270,6.8,23.9,60,0.00,,,0.00,heavyweathercustom,2013-05-03 12:04:00,
2013-05-03 08:10:00,52.5,39.0,30.42,West,270,6.8,23.9,60,0.00,,,0.00,heavyweathercustom,2013-05-03 12:10:00,
2013-05-03 08:20:00,52.3,39.3,30.42,WSW,248,3.3,23.9,61,0.00,,,0.00,heavyweathercustom,2013-05-03 12:20:00,
2013-05-03 08:34:00,52.5,39.4,30.42,West,270,10.1,23.9,61,0.00,,,0.00,heavyweathercustom,2013-05-03 12:34:00,
2013-05-03 08:40:00,52.5,39.4,30.43,WNW,293,10.1,26.7,61,0.00,,,0.00,heavyweathercustom,2013-05-03 12:40:00,
2013-05-03 08:50:00,52.5,39.4,30.42,West,270,10.1,26.7,61,0.00,,,0.00,heavyweathercustom,2013-05-03 12:50:00,
2013-05-03 09:04:00,52.5,39.4,30.43,West,270,15.7,26.7,61,0.00,,,0.00,heavyweathercustom,2013-05-03 13:04:00,
2013-05-03 09:10:00,52.5,39.0,30.42,West,270,6.8,27.7,60,0.00,,,0.00,heavyweathercustom,2013-05-03 13:10:00,
2013-05-03 09:20:00,52.5,39.4,30.42,WSW,248,3.3,27.7,61,0.00,,,0.00,heavyweathercustom,2013-05-03 13:20:00,
2013-05-03 09:34:00,52.9,39.8,30.42,WNW,293,13.4,27.7,61,0.00,,,0.00,heavyweathercustom,2013-05-03 13:34:00,
2013-05-03 09:40:00,53.4,39.9,30.42,West,270,6.8,25.3,60,0.00,,,0.00,heavyweathercustom,2013-05-03 13:40:00,
2013-05-03 09:50:00,54.3,40.3,30.42,West,270,13.4,25.3,59,0.00,,,0.00,heavyweathercustom,2013-05-03 13:50:00,
2013-05-03 10:04:00,54.9,40.4,30.42,WSW,248,3.3,25.3,58,0.00,,,0.00,heavyweathercustom,2013-05-03 14:04:00,
2013-05-03 10:10:00,55.0,40.5,30.42,SW,225,0.0,25.3,58,0.00,,,0.00,heavyweathercustom,2013-05-03 14:10:00,
2013-05-03 10:20:00,55.0,40.0,30.42,SW,225,6.8,22.5,57,0.00,,,0.00,heavyweathercustom,2013-05-03 14:20:00,
2013-05-03 10:34:00,55.0,40.5,30.42,West,270,15.7,22.5,58,0.00,,,0.00,heavyweathercustom,2013-05-03 14:34:00,
2013-05-03 10:40:00,55.2,40.2,30.43,West,270,10.1,25.1,57,0.00,,,0.00,heavyweathercustom,2013-05-03 14:40:00,
2013-05-03 10:50:00,54.5,39.6,30.43,West,270,6.8,25.1,57,0.00,,,0.00,heavyweathercustom,2013-05-03 14:50:00,
2013-05-03 11:04:00,54.1,39.7,30.43,West,270,6.8,25.1,58,0.00,,,0.00,heavyweathercustom,2013-05-03 15:04:00,
2013-05-03 11:10:00,54.1,39.2,30.43,WNW,293,6.8,16.9,57,0.00,,,0.00,heavyweathercustom,2013-05-03 15:10:00,
2013-05-03 11:20:00,54.3,39.4,30.43,West,270,13.4,16.9,57,0.00,,,0.00,heavyweathercustom,2013-05-03 15:20:00,
2013-05-03 11:35:00,54.3,39.4,30.42,West,270,6.8,16.9,57,0.00,,,0.00,heavyweathercustom,2013-05-03 15:35:00,
2013-05-03 11:40:00,54.7,39.3,30.42,West,270,13.4,25.2,56,0.00,,,0.00,heavyweathercustom,2013-05-03 15:40:00,
2013-05-03 11:50:00,55.0,39.6,30.41,SSE,158,0.0,25.2,56,0.00,,,0.00,heavyweathercustom,2013-05-03 15:50:00,
2013-05-03 12:04:00,55.2,39.3,30.41,West,270,10.1,25.2,55,0.00,,,0.00,heavyweathercustom,2013-05-03 16:04:00,
2013-05-03 12:10:00,55.2,38.8,30.41,West,270,13.4,25.2,54,0.00,,,0.00,heavyweathercustom,2013-05-03 16:10:00,
2013-05-03 12:20:00,55.4,38.1,30.40,SSW,203,0.0,25.2,52,0.00,,,0.00,heavyweathercustom,2013-05-03 16:20:00,
2013-05-03 12:34:00,55.6,37.8,30.40,West,270,10.1,20.3,51,0.00,,,0.00,heavyweathercustom,2013-05-03 16:34:00,
2013-05-03 12:40:00,55.8,37.9,30.40,SW,225,3.3,26.7,51,0.00,,,0.00,heavyweathercustom,2013-05-03 16:40:00,
2013-05-03 12:50:00,55.9,38.5,30.39,WNW,293,3.3,26.7,52,0.00,,,0.00,heavyweathercustom,2013-05-03 16:50:00,
2013-05-03 13:04:00,56.1,38.7,30.39,West,270,13.4,26.7,52,0.00,,,0.00,heavyweathercustom,2013-05-03 17:04:00,
2013-05-03 13:10:00,56.5,39.6,30.38,West,270,6.8,19.6,53,0.00,,,0.00,heavyweathercustom,2013-05-03 17:10:00,
2013-05-03 13:20:00,56.8,39.9,30.38,West,270,3.3,19.6,53,0.00,,,0.00,heavyweathercustom,2013-05-03 17:20:00,
2013-05-03 13:35:00,57.0,40.0,30.38,West,270,6.8,19.6,53,0.00,,,0.00,heavyweathercustom,2013-05-03 17:35:00,
2013-05-03 13:40:00,57.0,40.5,30.38,SW,225,0.0,19.6,54,0.00,,,0.00,heavyweathercustom,2013-05-03 17:40:00,
2013-05-03 13:50:00,57.4,40.4,30.38,ESE,113,0.0,19.6,53,0.00,,,0.00,heavyweathercustom,2013-05-03 17:50:00,
2013-05-03 14:04:00,57.7,40.7,30.38,ESE,113,3.3,14.7,53,0.00,,,0.00,heavyweathercustom,2013-05-03 18:04:00,
2013-05-03 14:40:00,58.8,42.7,30.37,WSW,248,3.3,26.9,55,0.00,,,0.00,heavyweathercustom,2013-05-03 18:40:00,
2013-05-03 14:50:00,58.8,41.2,30.37,West,270,3.3,26.9,52,0.00,,,0.00,heavyweathercustom,2013-05-03 18:50:00,
2013-05-03 15:04:00,58.8,42.2,30.36,South,180,0.0,26.9,54,0.00,,,0.00,heavyweathercustom,2013-05-03 19:04:00,
2013-05-03 15:10:00,59.2,43.5,30.36,ESE,113,0.0,18.8,56,0.00,,,0.00,heavyweathercustom,2013-05-03 19:10:00,
2013-05-03 15:20:00,58.8,43.6,30.36,SW,225,3.3,18.8,57,0.00,,,0.00,heavyweathercustom,2013-05-03 19:20:00,
2013-05-03 15:34:00,58.8,43.6,30.36,WSW,248,6.8,18.8,57,0.00,,,0.00,heavyweathercustom,2013-05-03 19:34:00,
2013-05-03 15:40:00,58.8,43.6,30.36,East,90,0.0,18.8,57,0.00,,,0.00,heavyweathercustom,2013-05-03 19:40:00,
2013-05-03 15:50:00,58.5,43.3,30.35,West,270,0.0,6.8,57,0.00,,,0.00,heavyweathercustom,2013-05-03 19:50:00,
2013-05-03 16:04:00,58.1,43.4,30.35,ESE,113,0.0,6.8,58,0.00,,,0.00,heavyweathercustom,2013-05-03 20:04:00,
2013-05-03 16:10:00,57.9,43.2,30.35,NW,315,0.0,6.8,58,0.00,,,0.00,heavyweathercustom,2013-05-03 20:10:00,
2013-05-03 16:20:00,57.9,43.2,30.34,ESE,113,0.0,6.8,58,0.00,,,0.00,heavyweathercustom,2013-05-03 20:20:00,
2013-05-03 16:34:00,57.7,43.5,30.34,SSW,203,0.0,6.8,59,0.00,,,0.00,heavyweathercustom,2013-05-03 20:34:00,
2013-05-03 16:40:00,57.4,43.2,30.34,NNW,338,0.0,7.1,59,0.00,,,0.00,heavyweathercustom,2013-05-03 20:40:00,
2013-05-03 16:50:00,57.0,43.3,30.34,WSW,248,0.0,7.1,60,0.00,,,0.00,heavyweathercustom,2013-05-03 20:50:00,
2013-05-03 17:04:00,56.8,43.5,30.34,WSW,248,3.3,7.1,61,0.00,,,0.00,heavyweathercustom,2013-05-03 21:04:00,
2013-05-03 17:10:00,56.5,43.6,30.33,SSW,203,0.0,7.1,62,0.00,,,0.00,heavyweathercustom,2013-05-03 21:10:00,
2013-05-03 17:20:00,56.3,43.9,30.33,ENE,68,0.0,7.1,63,0.00,,,0.00,heavyweathercustom,2013-05-03 21:20:00,
2013-05-03 17:34:00,56.1,43.7,30.32,SW,225,0.0,7.1,63,0.00,,,0.00,heavyweathercustom,2013-05-03 21:34:00,
2013-05-03 17:40:00,56.1,44.1,30.34,WSW,248,0.0,25.1,64,0.00,,,0.00,heavyweathercustom,2013-05-03 21:40:00,
2013-05-03 17:50:00,55.9,44.3,30.34,WSW,248,0.0,25.1,65,0.00,,,0.00,heavyweathercustom,2013-05-03 21:50:00,
2013-05-03 18:04:00,55.8,44.2,30.34,West,270,0.0,25.1,65,0.00,,,0.00,heavyweathercustom,2013-05-03 22:04:00,
2013-05-03 18:10:00,55.6,44.4,30.34,WSW,248,0.0,25.1,66,0.00,,,0.00,heavyweathercustom,2013-05-03 22:10:00,
2013-05-03 18:20:00,55.8,44.6,30.34,South,180,0.0,6.8,66,0.00,,,0.00,heavyweathercustom,2013-05-03 22:20:00,
2013-05-03 18:34:00,55.8,44.6,30.34,WSW,248,0.0,6.8,66,0.00,,,0.00,heavyweathercustom,2013-05-03 22:34:00,
2013-05-03 18:40:00,55.4,44.6,30.34,WSW,248,6.8,8.1,67,0.00,,,0.00,heavyweathercustom,2013-05-03 22:40:00,
2013-05-03 18:50:00,55.2,44.4,30.34,SW,225,0.0,8.1,67,0.00,,,0.00,heavyweathercustom,2013-05-03 22:50:00,
2013-05-03 19:04:00,55.0,44.6,30.34,West,270,3.3,8.1,68,0.00,,,0.00,heavyweathercustom,2013-05-03 23:04:00,
2013-05-03 19:10:00,54.9,44.5,30.34,WSW,248,0.0,8.1,68,0.00,,,0.00,heavyweathercustom,2013-05-03 23:10:00,
2013-05-03 19:20:00,54.5,44.5,30.34,SW,225,0.0,8.4,69,0.00,,,0.00,heavyweathercustom,2013-05-03 23:20:00,
2013-05-03 19:34:00,54.0,44.1,30.34,West,270,0.0,8.4,69,0.00,,,0.00,heavyweathercustom,2013-05-03 23:34:00,
2013-05-03 19:50:00,53.4,43.9,30.35,WSW,248,0.0,15.7,70,0.00,,,0.00,heavyweathercustom,2013-05-03 23:50:00,
2013-05-03 20:04:00,53.2,44.0,30.35,WSW,248,0.0,15.7,71,0.00,,,0.00,heavyweathercustom,2013-05-04 00:04:00,
2013-05-03 20:10:00,53.1,43.9,30.34,West,270,0.0,15.7,71,0.00,,,0.00,heavyweathercustom,2013-05-04 00:10:00,
2013-05-03 20:20:00,52.9,43.8,30.35,WSW,248,0.0,15.7,71,0.00,,,0.00,heavyweathercustom,2013-05-04 00:20:00,
2013-05-03 20:34:00,52.7,43.9,30.35,SSW,203,0.0,5.1,72,0.00,,,0.00,heavyweathercustom,2013-05-04 00:34:00,
2013-05-03 20:40:00,52.7,43.9,30.35,West,270,3.3,5.1,72,0.00,,,0.00,heavyweathercustom,2013-05-04 00:40:00,
2013-05-03 20:50:00,52.5,44.1,30.36,NW,315,0.0,7.4,73,0.00,,,0.00,heavyweathercustom,2013-05-04 00:50:00,
2013-05-03 21:04:00,52.3,43.9,30.36,WSW,248,0.0,7.4,73,0.00,,,0.00,heavyweathercustom,2013-05-04 01:04:00,
2013-05-03 21:10:00,52.2,43.8,30.35,West,270,0.0,5.7,73,0.00,,,0.00,heavyweathercustom,2013-05-04 01:10:00,
2013-05-03 21:20:00,52.2,44.2,30.36,WSW,248,0.0,5.7,74,0.00,,,0.00,heavyweathercustom,2013-05-04 01:20:00,
2013-05-03 21:34:00,52.0,44.0,30.36,West,270,0.0,5.7,74,0.00,,,0.00,heavyweathercustom,2013-05-04 01:34:00,
2013-05-03 21:40:00,51.8,43.8,30.36,WSW,248,0.0,5.7,74,0.00,,,0.00,heavyweathercustom,2013-05-04 01:40:00,
2013-05-03 21:50:00,51.6,43.6,30.36,WSW,248,0.0,5.7,74,0.00,,,0.00,heavyweathercustom,2013-05-04 01:50:00,
2013-05-03 22:04:00,51.6,43.9,30.36,WSW,248,0.0,4.4,75,0.00,,,0.00,heavyweathercustom,2013-05-04 02:04:00,
2013-05-03 22:10:00,51.6,43.9,30.36,WSW,248,0.0,4.4,75,0.00,,,0.00,heavyweathercustom,2013-05-04 02:10:00,
2013-05-03 22:20:00,51.6,43.9,30.37,West,270,0.0,4.4,75,0.00,,,0.00,heavyweathercustom,2013-05-04 02:20:00,
2013-05-03 22:34:00,51.4,43.7,30.36,West,270,0.0,4.7,75,0.00,,,0.00,heavyweathercustom,2013-05-04 02:34:00,
2013-05-03 22:40:00,51.3,43.6,30.35,West,270,0.0,4.7,75,0.00,,,0.00,heavyweathercustom,2013-05-04 02:40:00,
2013-05-03 22:50:00,51.3,44.0,30.35,WSW,248,0.0,4.4,76,0.00,,,0.00,heavyweathercustom,2013-05-04 02:50:00,
2013-05-03 23:04:00,51.1,43.8,30.35,West,270,0.0,4.4,76,0.00,,,0.00,heavyweathercustom,2013-05-04 03:04:00,
2013-05-03 23:10:00,51.1,43.8,30.35,West,270,0.0,3.8,76,0.00,,,0.00,heavyweathercustom,2013-05-04 03:10:00,
2013-05-03 23:20:00,50.9,43.6,30.35,West,270,0.0,3.8,76,0.00,,,0.00,heavyweathercustom,2013-05-04 03:20:00,
2013-05-03 23:34:00,50.7,43.8,30.35,SSW,203,0.0,3.8,77,0.00,,,0.00,heavyweathercustom,2013-05-04 03:34:00,
2013-05-03 23:40:00,50.7,43.8,30.35,West,270,0.0,2.4,77,0.00,,,0.00,heavyweathercustom,2013-05-04 03:40:00,
2013-05-03 23:50:00,50.7,43.8,30.34,West,270,0.0,2.4,77,0.00,,,0.00,heavyweathercustom,2013-05-04 03:50:00,